Rochester, NY

1:52 PM EST on November 15, 2019 (GMT -0500)
Greater Rochester International

Weather History for KROC - May, 2019

Change the Weather History Date:

Thursday, May 23, 2019

  Actual Average Record
Temperature  
Mean Temperature 66 °F 59 °F  
Max Temperature 77 °F 70 °F 90 °F (1930)
Min Temperature 55 °F 49 °F 31 °F (1967)
Degree Days  
Heating Degree Days 0 7  
Month to date heating degree days 242 228  
Since 1 July heating degree days 6366 6531  
Cooling Degree Days 1 1  
Month to date cooling degree days 4 14  
Year to date cooling degree days 4 18  
Growing Degree Days 16 (Base 50)    
Moisture  
Dew Point 56 °F    
Average Humidity 69    
Maximum Humidity 81    
Minimum Humidity 57    
Precipitation  
Precipitation 0.14 in 0.10 in 1.49 in (1931)
Month to date precipitation 2.28 2.12  
Year to date precipitation 12.21 11.71  
Snow  
Snow 0.00 in 0.00 in 0.00 in ()
Month to date snowfall 0.0 0.4  
Since 1 July snowfall 97.1 99.5  
Snow Depth 0.00 in    
Sea Level Pressure  
Sea Level Pressure 29.93 in    
Wind  
Wind Speed 11 mph (SW)    
Max Wind Speed 32 mph    
Max Gust Speed 44 mph    
Visibility 9 miles    
Events Rain , Thunderstorm    
T = Trace of Precipitation, MM = Missing Value Source: NWS Daily Summary

Daily Weather History Graph

Daily Weather History Graph

Search for Another Location

Airport or City:

Astronomy

May. 23, 2019 Rise Set
Actual Time 5:39 AM EDT 8:35 PM EDT
Civil Twilight 5:06 AM EDT 9:09 PM EDT
Nautical Twilight 4:23 AM EDT 9:52 PM EDT
Astronomical Twilight 3:33 AM EDT 10:42 PM EDT
Moon 12:17 AM EDT (5/23) 9:40 AM EDT (5/23)
Length of Visible Light 16h 02m
Length of Day
14h 55m
Waning Gibbous, 77% of the Moon is Illuminated
May 23
Waning Gibbous
May 26
Last Quarter
Jun 3
New
Jun 10
First Quarter
Jun 17
Full

Hourly Weather History & Observations

Time (EDT) Temp. Dew Point Humidity Pressure Visibility Wind Dir Wind Speed Gust Speed Precip Events Conditions
12:54 AM 61.0 °F 46.9 °F 60% 30.08 in 10.0 mi SSW 4.6 mph - N/A   Scattered Clouds
1:54 AM 60.1 °F 46.9 °F 62% 30.06 in 10.0 mi SSW 4.6 mph - N/A   Scattered Clouds
2:54 AM 59.0 °F 48.0 °F 67% 30.04 in 10.0 mi SSW 4.6 mph - N/A   Partly Cloudy
3:54 AM 55.9 °F 48.9 °F 77% 30.05 in 10.0 mi SW 8.1 mph - N/A   Scattered Clouds
4:54 AM 60.1 °F 51.1 °F 72% 30.02 in 10.0 mi SW 9.2 mph - N/A   Scattered Clouds
5:54 AM 60.1 °F 52.0 °F 75% 30.01 in 10.0 mi South 4.6 mph - N/A   Overcast
6:54 AM 62.1 °F 53.1 °F 72% 30.02 in 10.0 mi SSW 4.6 mph - N/A   Mostly Cloudy
7:54 AM 64.0 °F 54.0 °F 70% 30.00 in 10.0 mi South 5.8 mph - N/A   Mostly Cloudy
8:54 AM 68.0 °F 55.9 °F 65% 29.99 in 10.0 mi South 6.9 mph - N/A   Overcast
9:54 AM 71.1 °F 57.9 °F 63% 29.97 in 10.0 mi SSW 6.9 mph - N/A   Overcast
10:06 AM 71.1 °F 60.1 °F 68% 29.96 in 10.0 mi SSW 5.8 mph - N/A   Overcast
10:54 AM 72.0 °F 60.1 °F 66% 29.96 in 10.0 mi SSW 6.9 mph - N/A   Overcast
11:54 AM 70.0 °F 63.0 °F 78% 29.98 in 4.0 mi SW 13.8 mph - 0.03 in Rain Rain
12:28 PM 68.0 °F 63.0 °F 84% 29.94 in 2.0 mi WSW 5.8 mph - 0.03 in Rain , Thunderstorm Thunderstorms and Rain
12:38 PM 68.0 °F 63.0 °F 84% 29.92 in 4.0 mi Calm Calm - 0.07 in Rain , Thunderstorm Light Thunderstorms and Rain
12:54 PM 68.0 °F 63.0 °F 84% 29.91 in 4.0 mi SSW 5.8 mph - 0.08 in Rain Rain
1:54 PM 71.1 °F 66.0 °F 84% 29.88 in 10.0 mi SW 6.9 mph - 0.03 in   Mostly Cloudy
2:54 PM 75.0 °F 62.1 °F 64% 29.83 in 10.0 mi WSW 20.7 mph 29.9 mph N/A   Mostly Cloudy
3:54 PM 75.9 °F 60.1 °F 58% 29.82 in 10.0 mi West 24.2 mph 35.7 mph N/A   Mostly Cloudy
4:54 PM 75.9 °F 61.0 °F 60% 29.80 in 10.0 mi West 28.8 mph 39.1 mph N/A   Mostly Cloudy
5:54 PM 75.9 °F 59.0 °F 56% 29.78 in 10.0 mi West 26.5 mph 36.8 mph N/A   Mostly Cloudy
6:54 PM 73.9 °F 57.9 °F 57% 29.79 in 10.0 mi West 25.3 mph 38.0 mph N/A   Mostly Cloudy
7:54 PM 72.0 °F 57.0 °F 59% 29.81 in 10.0 mi West 11.5 mph 23.0 mph N/A   Partly Cloudy
8:54 PM 69.1 °F 57.0 °F 65% 29.82 in 10.0 mi West 6.9 mph - N/A   Partly Cloudy
9:54 PM 64.9 °F 50.0 °F 58% 29.87 in 10.0 mi North 16.1 mph - N/A   Partly Cloudy
10:54 PM 62.1 °F 48.0 °F 60% 29.90 in 10.0 mi NW 6.9 mph - N/A   Partly Cloudy
11:54 PM 61.0 °F 46.0 °F 58% 29.90 in 10.0 mi WNW 6.9 mph - N/A   Partly Cloudy